Flag for U.S.A. Weather past 2 weeks in Wright, Florida, U.S.A.

Now
72 °F

Sunny.


Feels Like: 77 °F
Forecast: 65 / 84 °F
Wind: 10 mph from Northeast

Location: Hurlburt Field

Current Time: May 22, 2015 at 10:41:40 AM

Latest Report: May 22, 2015 at 9:58 AM


Visibility: 10 mi

Pressure: 30.16 "Hg

Humidity: 54%

Dew point: 54 °F

Location of WrightLocation

Historic Weather in Wright — Graph

°F

Wright temperature yesterday

Maximum temperature yesterday: 86 °F (at 10:58 AM)
Minimum temperature yesterday: 69 °F (at 2:58 AM)
Average temperature yesterday: 77 °F

Past Weeks' High & Low Weather Summary

 TemperatureHumidityPressure
High88 °F (May 20, 1:58 PM)94% (May 19, 3:58 AM)30.20 "Hg (May 19, 3:58 AM)
Low62 °F (May 8, 5:58 AM)35% (May 9, 1:58 PM)29.93 "Hg (May 20, 3:58 PM)
Average77 °F74%30.09 "Hg
* Reported May 7 8:58 AM — May 22 8:58 AM, Wright, Weather by CustomWeather, © 2015

Note: Actual official high and low records may vary slightly from our data, if they occured in-between our weather recording intervals... More about our weather records

Advertising

Wright weather history for previous 24 hours

 ConditionsComfort  
Time TempWeatherWind HumidityBarometerVisibility
8:58 AM
Fri, May 22
67 °FPassing clouds.13 mph62%30.16 "Hg10 mi
7:58 AM67 °FPassing clouds.8 mph68%30.14 "Hg10 mi
6:58 AM64 °FPartly sunny.10 mph80%30.12 "Hg10 mi
5:58 AM65 °FPassing clouds.8 mph82%30.10 "Hg10 mi
4:58 AM67 °FClear.7 mph81%30.07 "Hg10 mi
3:58 AM69 °FPassing clouds.6 mph82%30.06 "Hg10 mi
2:58 AM69 °FPassing clouds.5 mph85%30.04 "Hg10 mi
1:58 AM71 °FPassing clouds.No wind81%30.02 "Hg10 mi
12:58 AM71 °FPassing clouds.7 mph81%30.02 "Hg10 mi
11:58 PM
Thu, May 21
73 °FPassing clouds.7 mph76%30.04 "Hg10 mi
10:58 PM74 °FClear.8 mph76%30.05 "Hg10 mi
9:58 PM75 °FPassing clouds.No wind83%30.05 "Hg10 mi
8:58 PM75 °FMostly cloudy.No wind85%30.03 "Hg10 mi
7:58 PM74 °FThundershowers. Mostly cloudy.5 mph87%30.01 "Hg10 mi
6:58 PM75 °FThunderstorms. Partly sunny.5 mph76%29.97 "Hg8 mi
5:58 PM79 °FThunderstorms. Passing clouds.9 mph83%29.96 "Hg10 mi
4:58 PM82 °FThunderstorms. Broken clouds.13 mph74%29.96 "Hg6 mi
3:58 PM85 °FSunny.10 mph63%29.96 "Hg10 mi
2:58 PM86 °FPassing clouds.12 mph60%29.96 "Hg10 mi
1:58 PM86 °FPassing clouds.10 mph61%29.98 "Hg10 mi
12:58 PM86 °FPassing clouds.10 mph57%29.99 "Hg10 mi
11:58 AM86 °FPassing clouds.9 mph56%30.01 "Hg10 mi
10:58 AM86 °FPassing clouds.3 mph54%30.01 "Hg10 mi
Weather by CustomWeather, © 2015

See weather overviewHow to use our weather pages